Location: Ripley
(48.3812°N, 115.4473°W)
Time: 11:52:20
(UTC+00:00)

AIST 2D - Pass Details

Date: 09 July 2022
Orbit: 433 x 444 km, 97.0° (Epoch: 09 August)

Event Time Altitude Azimuth Distance (km) Brightness Sun altitude
Rises 06:10:54 0° 0° (N) 2,433 ? -16.1°
Reaches altitude 10° 06:13:10 10° 346° (NNW) 1,561 ? -16.2°
Maximum altitude 06:15:52 23° 292° (WNW) 983 ? -16.4°
Drops below altitude 10° 06:18:34 10° 238° (WSW) 1,556 ? -16.5°
Enters shadow 06:19:17 - 232° (SW) 1,814 ? -16.6°
